Valdosta Regional, GA

5:46 AM EDT on May 21, 2018 (GMT -0400)
Valdosta Regional

Weather History for KVLD - March, 2012

Change the Weather History Date:

Saturday, March 24, 2012

  Actual Average Record
Temperature  
Mean Temperature 78 °F 61 °F  
Max Temperature 86 °F 74 °F 89 °F (2013)
Min Temperature 72 °F 49 °F 40 °F (2018)
Degree Days  
Heating Degree Days 0 5  
Month to date heating degree days 155  
Since 1 July heating degree days 1535  
Cooling Degree Days 13 1  
Month to date cooling degree days 24  
Year to date cooling degree days 34  
Growing Degree Days 28 (Base 50)    
Moisture  
Dew Point 67 °F    
Average Humidity 75    
Maximum Humidity 87    
Minimum Humidity 53    
Precipitation  
Precipitation 0.16 in 0.14 in 0.72 in (2016)
Month to date precipitation 3.79  
Year to date precipitation 12.52  
Sea Level Pressure  
Sea Level Pressure 29.94 in    
Wind  
Wind Speed 4 mph (SSW)    
Max Wind Speed 13 mph    
Max Gust Speed 22 mph    
Visibility 8 miles    
Events Rain    
T = Trace of Precipitation, MM = Missing Value Source: NWS Daily Summary

Daily Weather History Graph

Daily Weather History Graph

Search for Another Location

Airport or City:

Astronomy

Mar. 24, 2012 Rise Set
Actual Time 7:31 AM EDT 7:47 PM EDT
Civil Twilight 7:07 AM EDT 8:11 PM EDT
Nautical Twilight 6:39 AM EDT 8:39 PM EDT
Astronomical Twilight 6:10 AM EDT 9:08 PM EDT
Moon 8:20 AM EDT (3/24) 9:52 PM EDT (3/24)
Length of Visible Light 13h 04m
Length of Day
12h 16m
Waxing Crescent, 4% of the Moon is Illuminated
Mar 24
Waxing Crescent
Mar 30
First Quarter
Apr 6
Full
Apr 13
Last Quarter
Apr 21
New

Hourly Weather History & Observations

Time (EDT) Temp. Heat Index Dew Point Humidity Pressure Visibility Wind Dir Wind Speed Gust Speed Precip Events Conditions
12:53 AM 73.0 °F - 66.9 °F 81% 30.03 in 10.0 mi Calm Calm - N/A   Overcast
1:53 AM 73.0 °F - 66.9 °F 81% 30.02 in 10.0 mi South 4.6 mph - N/A   Overcast
2:24 AM 73.4 °F - 66.2 °F 78% 30.00 in 10.0 mi South 4.6 mph - N/A   Overcast
2:28 AM 73.4 °F - 66.2 °F 78% 30.00 in 10.0 mi South 6.9 mph - N/A   Overcast
2:53 AM 72.0 °F - 66.9 °F 84% 30.02 in 8.0 mi South 5.8 mph - N/A   Overcast
3:53 AM 72.0 °F - 66.9 °F 84% 29.99 in 7.0 mi South 4.6 mph - N/A   Overcast
4:53 AM 72.0 °F - 68.0 °F 87% 29.98 in 6.0 mi South 4.6 mph - N/A   Overcast
5:53 AM 73.0 °F - 68.0 °F 84% 29.98 in 6.0 mi Calm Calm - N/A   Haze
6:53 AM 73.0 °F - 68.0 °F 84% 29.99 in 5.0 mi Calm Calm - N/A   Haze
7:53 AM 73.0 °F - 68.0 °F 84% 29.99 in 5.0 mi South 4.6 mph - N/A   Haze
8:53 AM 73.9 °F - 68.0 °F 82% 29.99 in 6.0 mi South 6.9 mph - N/A   Haze
9:53 AM 75.9 °F - 69.1 °F 79% 29.98 in 10.0 mi South 5.8 mph - 0.00 in Rain Light Rain
10:53 AM 75.9 °F - 66.9 °F 74% 29.98 in 10.0 mi South 10.4 mph 21.9 mph 0.00 in   Mostly Cloudy
11:00 AM 75.2 °F - 64.4 °F 69% 29.96 in 10.0 mi South 12.7 mph - N/A   Mostly Cloudy
11:53 AM 75.0 °F - 66.9 °F 76% 29.97 in 4.0 mi WNW 3.5 mph - 0.02 in Rain Rain
11:55 AM 75.2 °F - 66.2 °F 73% 29.95 in 1.8 mi Variable 4.6 mph - 0.05 in Rain Rain
12:02 PM 73.4 °F - 66.2 °F 78% 29.95 in 3.0 mi Variable 3.5 mph - 0.11 in   Haze
12:33 PM 78.8 °F - 69.8 °F 74% 29.93 in 10.0 mi Variable 3.5 mph - 0.12 in   Mostly Cloudy
12:53 PM 81.0 °F 84.1 °F 69.1 °F 67% 29.94 in 10.0 mi Variable 3.5 mph - 0.12 in   Mostly Cloudy
1:53 PM 79.0 °F - 66.9 °F 66% 29.91 in 10.0 mi Variable 5.8 mph - 0.00 in   Mostly Cloudy
2:53 PM 84.9 °F 87.1 °F 66.0 °F 53% 29.89 in 10.0 mi Variable 4.6 mph - N/A   Mostly Cloudy
3:53 PM 75.9 °F - 66.9 °F 74% 29.88 in 8.0 mi SSW 4.6 mph - 0.02 in Rain Light Rain
4:53 PM 82.9 °F 86.5 °F 69.1 °F 63% 29.86 in 10.0 mi SSW 8.1 mph - 0.00 in   Partly Cloudy
5:53 PM 82.4 °F 85.4 °F 68.0 °F 62% 29.83 in 10.0 mi South 10.4 mph - N/A   Scattered Clouds
6:53 PM 80.1 °F 82.3 °F 66.9 °F 64% 29.85 in 10.0 mi South 9.2 mph - N/A   Clear
7:53 PM 75.9 °F - 66.0 °F 71% 29.86 in 10.0 mi SSW 6.9 mph - N/A   Clear
8:53 PM 73.9 °F - 64.9 °F 73% 29.87 in 10.0 mi Variable 4.6 mph - N/A   Scattered Clouds
9:53 PM 73.0 °F - 66.0 °F 79% 29.88 in 10.0 mi Variable 5.8 mph - N/A   Clear
10:53 PM 72.0 °F - 66.0 °F 81% 29.88 in 10.0 mi SSW 4.6 mph - N/A   Clear
11:53 PM 72.0 °F - 66.0 °F 81% 29.87 in 10.0 mi SSW 3.5 mph - N/A   Mostly Cloudy